Hourly Weather Godziszka

Today, 7 May, Friday

Time Temperature Precipitation Wind Pressure Humidity
00:00 +5°C° 0 mm 2 mps 713 mmHg 83%
01:00 +5°C° 0 mm 2 mps 712 mmHg 84%
02:00 +6°C° 0 mm 2 mps 712 mmHg 84%
03:00 +5°C° 0 mm 3 mps 711 mmHg 83%
04:00 +7°C° 0 mm 3 mps 711 mmHg 83%
05:00 +6°C° 0 mm 4 mps 711 mmHg 83%
06:00 +6°C° 0 mm 4 mps 712 mmHg 82%
07:00 +6°C° 0 mm 4 mps 712 mmHg 82%
08:00 +7°C° 0.1 mm 5 mps 712 mmHg 79%
09:00 +8°C° 0.1 mm 6 mps 712 mmHg 76%
10:00 +9°C° 0.1 mm 7 mps 712 mmHg 73%
11:00 +9°C° 0.2 mm 7 mps 713 mmHg 71%
12:00 +9°C° 0.2 mm 6 mps 713 mmHg 69%
13:00 +9°C° 0.2 mm 6 mps 713 mmHg 68%
14:00 +8°C° 0.2 mm 6 mps 714 mmHg 68%
15:00 +8°C° 0.2 mm 6 mps 714 mmHg 69%
16:00 +8°C° 0.2 mm 6 mps 715 mmHg 69%
17:00 +6°C° 0.2 mm 5 mps 715 mmHg 73%
18:00 +5°C° 0.2 mm 4 mps 716 mmHg 77%
19:00 +3°C° 0.2 mm 3 mps 717 mmHg 80%
20:00 +3°C° 0.1 mm 2 mps 718 mmHg 84%
21:00 +3°C° 0.1 mm 2 mps 718 mmHg 87%
22:00 +2°C° 0.1 mm 2 mps 719 mmHg 91%
23:00 +2°C° 0.1 mm 2 mps 719 mmHg 91%

Tomorrow, 8 May, Saturday

Time Temperature Precipitation Wind Pressure Humidity
00:00 +1°C° 0.1 mm 2 mps 719 mmHg 91%
01:00 +1°C° 0.1 mm 2 mps 720 mmHg 92%
02:00 +1°C° 0 mm 2 mps 720 mmHg 92%
03:00 +1°C° 0 mm 2 mps 721 mmHg 92%
04:00 +1°C° 0 mm 2 mps 721 mmHg 92%
05:00 +2°C° 0 mm 2 mps 721 mmHg 87%
06:00 +3°C° 0 mm 2 mps 722 mmHg 82%
07:00 +4°C° 0 mm 2 mps 722 mmHg 77%
08:00 +4°C° 0 mm 3 mps 722 mmHg 71%
09:00 +5°C° 0 mm 3 mps 723 mmHg 64%
10:00 +7°C° 0 mm 3 mps 723 mmHg 58%
11:00 +8°C° 0.1 mm 3 mps 723 mmHg 54%
12:00 +9°C° 0.1 mm 3 mps 723 mmHg 50%
13:00 +10°C° 0.1 mm 4 mps 722 mmHg 46%
14:00 +10°C° 0 mm 3 mps 722 mmHg 45%
15:00 +11°C° 0 mm 3 mps 722 mmHg 44%
16:00 +11°C° 0 mm 3 mps 722 mmHg 43%
17:00 +9°C° 0 mm 2 mps 722 mmHg 51%
18:00 +8°C° 0 mm 1 mps 722 mmHg 59%
19:00 +6°C° 0 mm 0 mps 722 mmHg 66%
20:00 +6°C° 0 mm 1 mps 723 mmHg 67%
21:00 +6°C° 0 mm 1 mps 723 mmHg 68%
22:00 +4°C° 0 mm 2 mps 723 mmHg 69%
23:00 +4°C° 0 mm 2 mps 723 mmHg 71%

Day after tomorrow, 9 May, Sunday

Time Temperature Precipitation Wind Pressure Humidity
00:00 +3°C° 0 mm 2 mps 723 mmHg 72%
01:00 +3°C° 0 mm 2 mps 723 mmHg 74%
02:00 +3°C° 0 mm 2 mps 723 mmHg 74%
03:00 +3°C° 0 mm 2 mps 723 mmHg 74%
04:00 +3°C° 0 mm 2 mps 723 mmHg 74%
05:00 +5°C° 0 mm 2 mps 723 mmHg 69%
06:00 +7°C° 0 mm 2 mps 723 mmHg 63%
07:00 +9°C° 0 mm 2 mps 723 mmHg 57%
08:00 +11°C° 0 mm 3 mps 723 mmHg 53%
09:00 +13°C° 0 mm 3 mps 722 mmHg 49%
10:00 +15°C° 0 mm 4 mps 722 mmHg 44%
11:00 +17°C° 0 mm 4 mps 722 mmHg 43%
12:00 +18°C° 0 mm 4 mps 722 mmHg 41%
13:00 +19°C° 0 mm 4 mps 722 mmHg 39%
14:00 +19°C° 0 mm 3 mps 722 mmHg 40%
15:00 +19°C° 0 mm 3 mps 722 mmHg 42%
16:00 +19°C° 0 mm 3 mps 721 mmHg 44%
17:00 +17°C° 0 mm 3 mps 721 mmHg 52%
18:00 +14°C° 0 mm 2 mps 721 mmHg 61%
19:00 +12°C° 0 mm 2 mps 720 mmHg 70%
20:00 +10°C° 0 mm 2 mps 721 mmHg 73%
21:00 +9°C° 0 mm 2 mps 721 mmHg 76%
22:00 +8°C° 0 mm 2 mps 721 mmHg 79%
23:00 +7°C° 0 mm 2 mps 720 mmHg 80%

10 May, Monday

Time Temperature Precipitation Wind Pressure Humidity
00:00 +7°C° 0 mm 2 mps 720 mmHg 80%
01:00 +6°C° 0 mm 2 mps 720 mmHg 81%
02:00 +6°C° 0 mm 2 mps 720 mmHg 80%
03:00 +6°C° 0 mm 2 mps 719 mmHg 80%
04:00 +6°C° 0 mm 2 mps 719 mmHg 79%
05:00 +8°C° 0 mm 2 mps 719 mmHg 73%
06:00 +12°C° 0 mm 2 mps 719 mmHg 67%
07:00 +14°C° 0 mm 2 mps 719 mmHg 61%
08:00 +16°C° 0 mm 3 mps 719 mmHg 55%
09:00 +18°C° 0 mm 3 mps 719 mmHg 49%
10:00 +21°C° 0 mm 3 mps 719 mmHg 43%
11:00 +21°C° 0 mm 4 mps 719 mmHg 42%
12:00 +22°C° 0 mm 4 mps 719 mmHg 41%
13:00 +23°C° 0 mm 4 mps 720 mmHg 40%
14:00 +23°C° 0 mm 4 mps 720 mmHg 44%
15:00 +22°C° 0 mm 4 mps 720 mmHg 47%
16:00 +22°C° 0 mm 5 mps 720 mmHg 51%
17:00 +20°C° 0 mm 4 mps 720 mmHg 59%
18:00 +18°C° 0 mm 3 mps 720 mmHg 68%
19:00 +16°C° 0 mm 2 mps 719 mmHg 76%
20:00 +15°C° 0 mm 2 mps 719 mmHg 79%
21:00 +14°C° 0 mm 2 mps 719 mmHg 82%
22:00 +13°C° 0 mm 2 mps 719 mmHg 85%
23:00 +12°C° 0 mm 2 mps 719 mmHg 87%

11 May, Tuesday

Time Temperature Precipitation Wind Pressure Humidity
00:00 +12°C° 0 mm 2 mps 719 mmHg 88%
01:00 +11°C° 0 mm 3 mps 718 mmHg 90%
02:00 +10°C° 0 mm 3 mps 718 mmHg 89%
03:00 +10°C° 0 mm 3 mps 718 mmHg 89%
04:00 +10°C° 0 mm 3 mps 717 mmHg 89%
05:00 +12°C° 0 mm 3 mps 717 mmHg 80%
06:00 +14°C° 0 mm 3 mps 717 mmHg 72%
07:00 +17°C° 0 mm 3 mps 718 mmHg 63%
08:00 +19°C° 0 mm 3 mps 718 mmHg 57%
09:00 +21°C° 0 mm 3 mps 718 mmHg 52%
10:00 +23°C° 0 mm 4 mps 718 mmHg 46%
11:00 +25°C° 0 mm 4 mps 718 mmHg 44%
12:00 +26°C° 0 mm 4 mps 718 mmHg 42%
13:00 +26°C° 0 mm 4 mps 718 mmHg 40%
14:00 +26°C° 0 mm 4 mps 718 mmHg 42%
15:00 +26°C° 0 mm 3 mps 718 mmHg 44%
16:00 +26°C° 0 mm 3 mps 718 mmHg 46%
17:00 +22°C° 0 mm 3 mps 717 mmHg 55%
18:00 +20°C° 0 mm 3 mps 717 mmHg 64%
19:00 +18°C° 0 mm 2 mps 716 mmHg 73%
20:00 +17°C° 0 mm 2 mps 716 mmHg 77%
21:00 +15°C° 0 mm 2 mps 716 mmHg 80%
22:00 +14°C° 0 mm 2 mps 716 mmHg 84%
23:00 +14°C° 0 mm 2 mps 716 mmHg 85%

12 May, Wednesday

Time Temperature Precipitation Wind Pressure Humidity
00:00 +13°C° 0 mm 2 mps 715 mmHg 86%
01:00 +13°C° 0 mm 2 mps 715 mmHg 87%
02:00 +13°C° 0 mm 2 mps 715 mmHg 87%
03:00 +13°C° 0 mm 2 mps 715 mmHg 88%
04:00 +12°C° 0 mm 2 mps 714 mmHg 88%
05:00 +14°C° 0.1 mm 2 mps 714 mmHg 83%
06:00 +15°C° 0.1 mm 2 mps 714 mmHg 79%
07:00 +17°C° 0.1 mm 2 mps 714 mmHg 74%
08:00 +19°C° 0.1 mm 2 mps 714 mmHg 67%
09:00 +20°C° 0.1 mm 2 mps 714 mmHg 60%
10:00 +23°C° 0.1 mm 2 mps 714 mmHg 53%
11:00 +24°C° 0 mm 2 mps 713 mmHg 50%
12:00 +25°C° 0 mm 2 mps 713 mmHg 47%
13:00 +26°C° 0 mm 2 mps 712 mmHg 43%
14:00 +25°C° 0.1 mm 2 mps 711 mmHg 48%
15:00 +25°C° 0.1 mm 2 mps 711 mmHg 53%
16:00 +24°C° 0.1 mm 2 mps 710 mmHg 58%
17:00 +21°C° 0.1 mm 2 mps 709 mmHg 65%
18:00 +19°C° 0.1 mm 2 mps 708 mmHg 71%
19:00 +17°C° 0.1 mm 3 mps 708 mmHg 78%
20:00 +16°C° 0.1 mm 3 mps 708 mmHg 82%
21:00 +13°C° 0.1 mm 3 mps 708 mmHg 86%
22:00 +12°C° 0.1 mm 3 mps 708 mmHg 90%
23:00 +13°C° 0.1 mm 2 mps 708 mmHg 90%
Show more